Location: W�rzburg
(49.7529°N, 9.8822°E)
Time: 10:56:18
(UTC+01:00)

OTV 5 (USA 277) - Visible Passes

Search period start: 24 February 2018 00:00
Search period end: 06 March 2018 00:00
Orbit: 404 x 417 km, 43.0° (Epoch: 07 September)

Date Brightness Start Highest point End Pass type
(mag) Time Alt. Az. Time Alt. Az. Time Alt. Az.
24 Feb ? 05:03:42 13° SSE 05:03:53 13° SSE 05:05:27 10° SE visible
24 Feb ? 06:37:47 10° SW 06:40:30 24° S 06:43:14 10° ESE visible
25 Feb ? 05:47:48 15° SSW 05:49:35 22° S 05:52:13 10° ESE visible
26 Feb ? 04:59:06 19° SSE 04:59:06 19° SSE 05:01:07 10° ESE visible
26 Feb ? 06:32:39 10° WSW 06:35:25 25° S 06:38:11 10° SE visible
27 Feb ? 05:43:07 19° SW 05:44:29 25° S 05:47:16 10° ESE visible
28 Feb ? 04:54:23 22° SSE 04:54:23 22° SSE 04:56:16 10° ESE visible
28 Feb ? 06:27:44 10° WSW 06:30:19 21° SSW 06:32:54 10° SE visible
01 Mar ? 05:38:23 20° SW 05:39:24 23° S 05:42:06 10° SE visible
02 Mar ? 04:49:40 20° SSE 04:49:40 20° SSE 04:51:13 10° SE visible
02 Mar ? 06:23:10 10° WSW 06:25:09 15° SSW 06:27:08 10° SSE visible
03 Mar ? 05:33:44 18° SSW 05:34:16 18° SSW 05:36:36 10° SSE visible
04 Mar ? 04:45:06 14° SSE 04:45:06 14° SSE 04:45:56 10° SE visible
05 Mar ? 05:29:19 12° SSW 05:29:19 12° SSW 05:30:21 10° S visible
